Location: Castillon
(43.0896°N, 0.2156°E)
Time: 20:33:58
(UTC+00:00)

Daily predictions for brighter satellites

Satellite Brightness Start Highest point End
(mag) Time Altitude Azimuth Time Altitude Azimuth Time Altitude Azimuth
CENTAUR R/B 2.5 20:07:13 10° SSW 20:12:57 75° ESE 20:19:49 10° NE
Cosmos 676 Rocket 4.4 20:09:50 10° NNW 20:15:06 55° ENE 20:20:19 10° SE
SJ-6B 4.0 20:11:45 10° S 20:15:42 46° W 20:19:38 10° NNW
Cosmos 1470 3.4 20:12:15 10° N 20:16:02 41° ENE 20:19:48 10° SSE
Cosmos 1954 Rocket 4.3 20:10:51 10° NNW 20:16:07 57° ENE 20:21:20 10° SE
Ariane Rocket 3.1 20:12:27 10° SSE 20:17:33 87° WSW 20:22:41 10° NNW
SL-24 DEB 4.4 20:15:12 10° S 20:19:55 85° W 20:24:44 10° N
Cosmos 1980 Rocket 3.4 20:18:54 10° SW 20:24:20 47° WNW 20:29:46 10° NNE
Cosmos 1674 4.5 20:22:46 10° SE 20:25:00 15° E 20:27:14 10° NE
Cosmos 1315 Rocket 3.3 20:22:28 10° N 20:26:29 47° ENE 20:30:27 10° SSE
USA 186 4.4 20:26:56 10° SW 20:28:29 14° W 20:30:06 10° WNW
Okean 1 Rocket 3.1 20:26:15 10° N 20:30:36 62° E 20:34:56 10° SSE
Cosmos 1140 Rocket 4.2 20:26:52 10° NNW 20:31:59 54° WSW 20:37:03 10° S
Resurs 1-3 4.2 20:27:53 10° S 20:32:12 59° W 20:36:33 10° NNW
Cosmos 1727 Rocket 4.4 20:27:39 10° SSE 20:33:39 47° E 20:39:37 10° NNE
Cosmos 1378 Rocket 3.7 20:35:02 10° SSW 20:39:22 75° W 20:43:45 10° N
Cosmos 1605 Rocket 4.1 20:33:25 10° N 20:39:52 84° E 20:46:14 10° S
Cosmos 220 Rocket 4.2 20:35:56 10° SSW 20:40:15 76° WNW 20:44:32 10° NNE
OBJECT-B 3.6 20:39:00 10° SW 20:41:01 16° W 20:43:03 10° NW
BREEZE-M DEB (TANK) 2.2 20:39:15 10° SW 20:41:29 49° SE 20:45:01 10° ENE
Meteor 2-10 4.2 20:37:02 10° NNW 20:42:04 73° W 20:47:11 10° S
Cosmos 1726 2.0 20:39:00 10° N 20:42:39 85° E 20:46:17 10° S
Cosmos 1844 Rocket 4.0 20:37:58 10° N 20:42:52 29° NE 20:47:39 10° ESE
Cosmos 2285 Rocket 4.1 20:36:43 10° SSW 20:43:08 84° ESE 20:49:37 10° NNE
Cosmos 1758 3.5 20:40:57 10° N 20:44:52 57° E 20:48:22 13° SSE
Okean 2 3.6 20:40:54 10° SSW 20:44:59 75° W 20:49:05 10° N
Meteor 2-20 4.4 20:41:49 10° S 20:47:53 77° E 20:53:59 10° NNE
Cosmos 292 Rocket 3.7 20:44:02 10° SSW 20:48:52 81° ESE 20:53:43 10° NNE
Lacrosse 5 rocket 2.3 20:49:51 10° S 20:52:40 21° SE 20:55:25 10° ENE
Cosmos 2263 Rocket 2.8 20:50:28 10° NNW 20:56:01 55° WSW 21:01:32 10° S
SPOT 5 3.8 20:53:08 14° SE 20:57:02 36° ENE 21:01:33 10° N
Cosmos 1707 2.9 20:54:49 10° SSW 20:58:41 77° W 21:02:35 10° N
Cosmos 1452 Rocket 3.5 20:55:17 10° SSW 21:00:32 75° ESE 21:05:50 10° NNE
In-Cosmos 22 4.0 21:01:08 10° S 21:06:24 78° E 21:11:42 10° NNE
Resurs 01 Rocket 2.7 21:04:25 10° S 21:08:35 42° W 21:12:47 10° NNW
Terra 2.9 21:06:08 16° ESE 21:09:09 32° ENE 21:13:21 10° N
SPOT 1/Viking Rocket 3.6 21:05:01 13° SSE 21:09:37 83° WSW 21:14:47 10° NNW
Cosmos 1459 Rocket 4.2 21:04:19 10° N 21:10:14 52° ENE 21:14:34 18° SSE
Cosmos 2333 Rocket 3.3 21:09:00 18° SE 21:11:45 25° ESE 21:16:21 10° NE
Cosmos 1850 Rocket 4.1 21:06:56 10° NNW 21:12:14 67° ENE 21:15:54 20° SSE
Cosmos 1025 Rocket 3.8 21:10:01 20° SE 21:12:28 36° E 21:16:29 10° NNE
Lacrosse 5 2.0 21:07:37 10° NW 21:12:39 67° SW 21:16:06 20° SSE
Cosmos 1953 2.7 21:08:51 10° N 21:12:50 50° E 21:15:11 22° SSE
CARTOSAT-1 3.6 21:10:57 19° SSE 21:13:58 69° ENE 21:18:16 10° N
MetOp-B 4.5 21:09:52 11° S 21:15:00 63° WSW 21:20:20 10° NNW
USA 245 4.0 21:11:38 16° S 21:15:21 82° WSW 21:20:56 10° NNW
NOSS 3-2 (C) 4.3 21:11:15 10° WSW 21:16:43 52° NW 21:23:03 10° NNE
Geosat 4.0 21:15:06 20° SE 21:18:38 75° ENE 21:23:40 10° NNW
FALCON 9 DEB 2.9 21:16:57 10° SW 21:20:22 78° SE 21:23:47 10° ENE
Spot 2 Rocket 3.5 21:17:52 18° SSE 21:21:40 89° ENE 21:26:46 10° NNW
Cosmos 1975 Rocket 3.0 21:18:21 13° S 21:22:17 89° ESE 21:26:42 10° N
ATLAS 3B R/B 3.1 21:18:04 13° S 21:23:18 36° ESE 21:29:18 10° NE
Cosmos 1331 Rocket 4.1 21:22:13 14° S 21:26:33 57° ESE 21:31:43 10° NNE
Cosmos 1844 4.2 21:21:25 10° NNW 21:26:50 49° ENE 21:30:18 21° SE
Cosmos 2219 Rocket 3.2 21:24:39 21° SE 21:26:56 28° ESE 21:31:42 10° NE
ERS-1 Rocket 3.0 21:24:38 22° SSE 21:27:53 70° ENE 21:32:55 10° N
Cosmos 1626 2.4 21:27:13 29° SSE 21:28:47 49° E 21:32:22 10° NNE
Cosmos 1461 3.3 21:24:44 10° NNW 21:28:52 52° NE 21:30:58 25° ESE
Aureole 1 Rocket 4.2 21:29:37 10° NNW 21:35:28 72° ENE 21:40:16 23° SSE
Cosmos 2123 Rocket 4.2 21:34:02 21° SSE 21:38:06 55° E 21:44:15 10° NNE
SL-8 R/B 4.1 21:33:22 10° WNW 21:38:08 61° NNE 21:41:58 15° E
BREEZE-M DEB (TANK) 1.9 21:35:36 10° NW 21:38:44 67° NNE 21:39:08 51° E
BREEZE-M DEB (TANK) 1.4 21:36:46 10° SW 21:39:09 78° SSE 21:43:26 10° ENE
KORONAS-FOTON 4.2 21:36:31 16° SSW 21:39:28 61° W 21:43:14 10° N
ATLAS 2A CENTAUR R/B 4.5 21:37:22 10° SW 21:41:29 13° SSW 21:41:59 13° S
ATLAS CENTAUR R/B 2.8 21:40:00 10° NNW 21:43:53 32° NE 21:46:25 19° E
Cosmos 1741 Rocket 4.2 21:39:06 10° NNW 21:44:21 69° WSW 21:47:27 25° S
Cosmos 1302 Rocket 4.5 21:42:30 27° SSE 21:44:42 41° ESE 21:49:36 10° NE
ARIANE 5 R/B 3.1 21:43:35 22° S 21:46:18 56° W 21:50:44 10° NNW
USA 215 3.4 21:40:16 10° ENE 21:46:34 48° SE 21:52:50 10° SSW
SL-16 R/B 3.7 21:41:53 10° SW 21:47:07 37° WNW 21:52:23 10° N
Celestis-02/Orion 38 4.5 21:45:21 28° SSE 21:48:06 86° ENE 21:53:16 10° NNW
Cosmos 2360 Rocket 2.3 21:42:47 10° SSW 21:48:25 77° WNW 21:54:06 10° NNE
Cosmos 2322 Rocket 3.3 21:44:25 10° SW 21:49:51 45° WNW 21:55:21 10° NNE
Cosmos 2100 Rocket 4.2 21:43:55 10° NNW 21:50:16 72° W 21:54:46 20° S
Centaur D AC-29 3.7 21:26:53 10° W 21:56:03 31° SSW 21:59:43 23° S
Cosmos 1674 4.2 21:57:09 12° SW 22:00:11 33° WNW 22:03:34 10° N
Cosmos 389 Rocket 4.4 22:00:54 10° NNE 22:03:14 17° ENE 22:03:30 17° ENE
COSMOS 2428 3.1 22:01:02 31° SSE 22:03:15 46° ESE 22:08:42 10° NE
SL-08 R/B 4.5 21:59:15 10° N 22:05:41 80° E 22:08:59 30° SSE
Cosmos 2322 3.6 22:02:41 24° S 22:06:11 71° ESE 22:11:49 10° NNE
CZ-4B DEB 4.2 22:06:05 61° SSW 22:06:29 73° WSW 22:09:40 10° NNW
Cosmos 1544 Rocket 3.8 22:02:11 10° NNW 22:06:37 63° W 22:08:31 32° SSW
H-2A R/B 3.3 22:03:42 10° NNE 22:07:48 88° WNW 22:09:25 36° SSW
Cosmos 1300 2.7 22:06:05 10° N 22:09:54 67° E 22:10:36 53° SE
Cosmos 1455 Rocket 4.4 22:07:28 10° NNW 22:11:29 33° W 22:14:02 19° SW
Cosmos 2016 Rocket 4.0 22:06:39 10° N 22:12:46 78° W 22:16:04 29° S
Cosmos 2278 Rocket 3.7 22:10:21 10° N 22:15:09 27° NE 22:18:27 16° E
Cosmos 1346 Rocket 3.5 22:19:17 37° E 22:19:24 37° E 22:23:07 10° NNE
USA 267 4.3 22:13:33 10° E 22:19:37 42° NNE 22:25:42 10° NW
Cosmos 1725 Rocket 4.0 22:18:01 10° NNW 22:24:11 74° W 22:27:17 31° S
Cosmos 1844 Rocket 3.3 22:21:32 10° NW 22:26:57 47° WSW 22:29:19 30° SSW
Meteor 2-5 Rocket 3.6 22:24:44 32° SSW 22:27:28 85° W 22:33:05 10° N
Cosmos 1340 3.5 22:26:35 31° SW 22:27:57 45° WNW 22:31:36 10° N
Lacrosse 5 rocket 2.1 22:27:59 10° WSW 22:31:30 44° NW 22:34:58 10° NE
Cosmos 968 Rocket 3.6 22:26:49 10° NNW 22:31:55 65° ENE 22:33:31 42° SE
Cosmos 1992 Rocket 4.3 22:32:39 41° SE 22:33:35 46° ESE 22:38:34 10° NNE
SPOT 5 4.5 22:32:22 18° SW 22:35:05 29° W 22:39:26 10° NW
Cosmos 405 3.6 22:32:17 10° NNW 22:35:36 43° W 22:35:50 42° WSW
Cosmos 1900 4.5 22:32:29 10° NW 22:37:18 60° WSW 22:38:26 46° SSW
Cosmos 1536 Rocket 4.3 22:35:24 29° SW 22:37:20 50° WNW 22:41:41 10° N
GEOS 3 Rocket 3.8 22:36:02 35° ESE 22:38:20 70° NE 22:43:39 10° NNW
Terra 3.3 22:45:01 22° SW 22:46:52 29° W 22:51:00 10° NW
DNEPR-1 R/B 3.5 22:45:52 10° NW 22:50:04 68° WSW 22:50:34 61° SSW
Cosmos 1980 4.1 22:50:45 41° SE 22:51:39 44° ESE 22:57:01 10° NE
Lacrosse 5 4.2 22:53:55 10° WSW 22:54:45 10° WSW 22:55:17 10° WSW
FALCON 9 DEB 4.4 22:56:15 32° NE 22:56:15 32° NE 22:58:08 10° NE
Cosmos 2333 Rocket 3.0 22:50:55 14° SW 22:55:40 50° WNW 23:01:16 10° NNE
Cosmos 2228 3.0 22:56:24 10° NNW 23:00:49 74° W 23:01:23 63° SSW
BREEZE-M DEB (TANK) 3.0 22:52:58 10° SW 23:03:58 78° SSE 23:07:16 10° ENE
Okean 1-7 Rocket 4.3 23:06:13 38° E 23:06:20 38° E 23:10:29 10° NNE
Cosmos 2219 Rocket 3.2 23:06:17 16° SW 23:10:38 44° WNW 23:16:05 10° NNE
ATLAS 3B R/B 3.5 23:07:28 10° WSW 23:13:47 49° NW 23:20:20 10° NNE
Meteor 2-10 Rocket 3.9 23:12:56 10° NNW 23:17:51 50° W 23:18:55 42° SW
Cosmos 1503 Rocket 4.1 23:12:38 10° NNW 23:18:02 72° ENE 23:19:20 51° SE
FALCON 9 DEB 4.3 23:19:50 38° NNW 23:19:50 38° NNW 23:22:42 10° NE
SL-8 R/B 4.3 23:16:04 10° WNW 23:19:54 40° WSW 23:19:54 40° WSW
SL-16 R/B 3.5 23:20:20 24° ESE 23:20:38 24° ESE 23:25:07 10° NE
ATLAS CENTAUR R/B 2.6 23:18:48 10° NW 23:22:33 33° WSW 23:22:33 33° WSW
Iridium 2 4.1 23:22:59 53° WNW 23:22:59 53° WNW 23:26:35 10° N
Cosmos 2058 Rocket 2.9 23:20:48 10° N 23:25:16 77° E 23:25:34 73° ESE
Cosmos 2237 Rocket 2.1 23:24:07 54° S 23:25:26 78° ESE 23:31:05 10° NNE
ATLAS CENTAUR R/B 3.0 23:25:36 50° SSE 23:26:43 58° ESE 23:37:46 10° NE
USA 215 3.8 23:23:16 10° NE 23:29:38 57° NNW 23:35:59 10° WSW
Cosmos 1867 3.5 23:26:30 10° NW 23:31:58 70° WSW 23:32:53 58° S
Spot 4 4.2 23:31:30 46° SW 23:32:07 49° W 23:36:47 10° NNW
Cosmos 1726 Rocket 4.0 23:31:00 10° NNW 23:35:19 49° W 23:35:38 48° WSW
Thor Agena Rocket 3.9 23:30:45 10° NNE 23:35:49 47° E 23:36:27 45° ESE
MINOTAUR IV R/B 4.5 23:36:27 73° ESE 23:36:32 73° ESE 23:41:06 10° NNE
GP-B 4.2 23:32:44 10° NNE 23:36:46 33° E 23:37:02 32° E
Cosmos 1455 2.7 23:34:05 10° NNW 23:37:30 51° WNW 23:37:30 51° WNW
Cosmos 389 Rocket 4.2 23:35:01 10° NW 23:37:17 24° WNW 23:37:17 24° WNW
Cosmos 1891 Rocket 4.5 23:32:41 10° NNW 23:38:48 73° W 23:40:38 47° SSW
Meteor 1-21 Rocket 4.1 23:39:35 55° SSW 23:40:55 88° W 23:46:39 10° N
Meteor 1-4 Rocket 3.6 23:42:03 10° N 23:44:51 38° NE 23:44:51 38° NE
COSMOS 2428 4.3 23:42:59 11° WSW 23:47:42 30° NW 23:52:43 10° N
NOSS 0 Rocket 4.4 23:45:23 29° SW 23:48:28 58° WNW 23:54:38 10° NNE
ALOS 2 2.9 23:49:12 54° WSW 23:49:18 54° W 23:53:37 10° NNW
Cosmos 1892 Rocket 4.4 23:49:28 37° W 23:50:08 39° WNW 23:54:19 10° N
COBE Rocket 4.5 23:51:48 42° WSW 23:52:29 45° W 23:57:17 10° NNW
SJ 16-02 2.8 23:51:55 10° N 23:55:47 29° ENE 23:57:01 25° E
